Spokane, WA
on Sunday, November 4, 2012

Sunday
Previous Day Next Day
Daily Summary
 ActualAverageRecord
Temperature
Mean Temperature °F 40°F  
Max Temperature 57°F 47°F 69°F (1891)
Min Temperature 47°F 33°F 11°F (2002)
Degree Days
Heating Degree Days 13 25  
Month to date heating degree days 61 98  
Since 1 July heating degree days 667 886  
Cooling Degree Days 0 0  
Month to date cooling degree days 0 0  
Year to date cooling degree days 535 450  
Moisture
Dew Point 48°F   
Average Humidity 83    
Maximum Humidity 93    
Minimum Humidity 72    
Precipitation
Precipitation 0.01 in 0.06 in 0.72 in (1985)
Month to date precipitation 0.28 0.25  
Year to date precipitation 15.78 12.21  
Snow
Snow 0.00 in 0.10 in 9.00 in (1973)
Month to date snowfall 0.0 0.3  
Since 1 July snowfall T 0.4  
Since 1 September snowfall T 0.4  
Snow Depth 0.00 in   
Wind
Wind Speed 7 mph   
Max Wind Speed 13 mph   
Max Gust Speed 17 mph   
Visibility 10 miles   
Events Fog , Rain   

Key: T is trace of precipitation, MM is missing value
Source: NWS Daily Summary
Time(PST)TemperatureDew PointHumidity Pressure Visibility Wind DirectionWind SpeedGust SpeedPrecipitationEvents Conditions
12:53 AM 50.0°F 46.9°F 89% 30.18 in 10.0 miles SSW 12.7 mph - N/A   Overcast
1:53 AM 48.9°F 46.9°F 93% 30.19 in 10.0 miles SSW 8.1 mph - N/A   Overcast
1:53 AM 48.9°F 46.9°F 93% 30.22 in 10.0 miles SSE 3.5 mph - N/A   Overcast
2:53 AM 48.9°F 46.9°F 93% 30.22 in 10.0 miles Calm Calm - N/A   Overcast
3:53 AM 48.0°F 46.0°F 93% 30.23 in 10.0 miles SSE 6.9 mph - N/A   Overcast
4:53 AM 48.0°F 46.9°F 96% 30.25 in 10.0 miles South 4.6 mph - N/A   Overcast
5:53 AM 48.0°F 46.9°F 96% 30.26 in 10.0 miles SSE 4.6 mph - 0.00 in Rain Light Rain
6:53 AM 48.0°F 46.0°F 93% 30.28 in 10.0 miles SSE 5.8 mph - 0.01 in Fog , Rain Light Rain
7:53 AM 48.9°F 46.9°F 93% 30.31 in 10.0 miles SSE 8.1 mph - N/A Fog Mostly Cloudy
8:53 AM 50.0°F 48.0°F 93% 30.30 in 10.0 miles SSE 6.9 mph - N/A Fog Mostly Cloudy
9:53 AM 53.1°F 48.9°F 86% 30.31 in 10.0 miles SSE 9.2 mph - N/A   Mostly Cloudy
10:53 AM 54.0°F 50.0°F 86% 30.32 in 10.0 miles South 8.1 mph - N/A   Overcast
10:56 AM 53.6°F 48.2°F 82% 30.31 in 10.0 miles South 6.9 mph - N/A   Overcast
11:53 AM 55.9°F 48.9°F 77% 30.31 in 10.0 miles South 8.1 mph - N/A   Overcast
12:53 PM 57.0°F 48.9°F 74% 30.30 in 10.0 miles South 9.2 mph - N/A   Overcast
1:53 PM 57.0°F 48.9°F 74% 30.31 in 10.0 miles SSW 11.5 mph - N/A   Overcast
2:53 PM 57.0°F 48.9°F 74% 30.32 in 10.0 miles South 5.8 mph - N/A   Overcast
3:53 PM 55.9°F 48.9°F 77% 30.32 in 10.0 miles South 4.6 mph - N/A   Overcast
4:53 PM 55.9°F 48.9°F 77% 30.30 in 10.0 miles SSE 5.8 mph - N/A   Overcast
5:53 PM 55.0°F 48.9°F 80% 30.29 in 10.0 miles SSE 8.1 mph - N/A   Overcast
6:53 PM 55.0°F 48.0°F 77% 30.31 in 10.0 miles South 6.9 mph - N/A   Overcast
7:39 PM 55.4°F 48.2°F 77% 30.29 in 10.0 miles SSE 6.9 mph - N/A   Overcast
7:53 PM 54.0°F 48.0°F 80% 30.29 in 10.0 miles SE 8.1 mph - N/A   Overcast
8:53 PM 53.1°F 46.9°F 80% 30.29 in 10.0 miles South 5.8 mph - N/A   Overcast
9:12 PM 53.6°F 48.2°F 82% 30.28 in 10.0 miles South 8.1 mph - N/A   Overcast
9:53 PM 54.0°F 48.0°F 80% 30.29 in 10.0 miles South 6.9 mph - N/A   Overcast
10:25 PM 53.6°F 48.2°F 82% 30.26 in 10.0 miles South 11.5 mph - N/A   Scattered Clouds
10:53 PM 53.1°F 48.0°F 83% 30.26 in 10.0 miles South 8.1 mph - N/A   Scattered Clouds
Moon Phase
Nov. 04 Nov. 06 Nov. 13 Nov. 20 Nov. 28
Sunrise:06:39 AM (PST) Moon Rise:09:06 PM (PST)11/4
Sunset:04:27 PM (PST) Moon Set:11:30 AM (PST)11/4

Copyright © 2014 The Weather Underground, Inc.